FENGYUN 1C DEB

Satellite information

Favourite Embed

Satellite Type and Status

DEBRISIN ORBIT

Key statistics

Satellite FENGYUN 1C DEB at a glance.

Uptime

9556

Days in orbit

Revolutions

≈ 14.4

Per day

Orbit

SSO

Sun Synchronous Orbit

Inclination

98.2

Latest

Satellite identification and parameters

Extended collection of information and parameters for FENGYUN 1C DEB.

Object identification

Identified? True

Debris? True

Object name: FENGYUN 1C DEB

International designator: 1999-025AZU

Object number (NORAD): 30930

Object ID (CCSDS): 30930

Country: PEOPLES REPUBLIC OF CHINA (PRC)

Current information (Y/N): Y

RCS size: SMALL

Orbital parameters

Period: 100.215 minutes

Inclination: 98.232 deg

SMA: 7146.866 km

Apoapsis: 846.302 km

Periapsis: 691.16 km

RAAN: 223.1056 deg

Eccentricy: 0.0108538

Argument of periapsis: 223.0563 deg

Mean anomaly: 263.7639 deg

Mean motion: 14.36909169 rev/day

Mean motion (dot): 0.00000644 rev/day2

B* drag term: 0.00021731 1/REarth

Two-line elements (TLE)

Creation date: July 7, 2025, 5:18 a.m.

Reference frame: TEME

Reference center: EARTH

Epoch: July 6, 2025, 9:24 p.m. UTC

TLE line 0: 0 FENGYUN 1C DEB

TLE line 1: 1 30930U 99025AZU 25187.89225872 .00000644 00000-0 21731-3 0 9997

TLE line 2: 2 30930 98.2320 223.1056 0108538 223.0563 263.7639 14.36909169960500

Live tracking on map

Real-time ground track for satellite FENGYUN 1C DEB.

In-orbit conjunctions

A list of the most updated potential collisions computed for object FENGYUN 1C DEB.

Target Orbit TCA Probability of collision Miss distance Type
CZ-6A DEB LEO 2025-04-10 19:45:28 0.0005972563 64.0 (m) DEBRIS
NOAA 16 DEB SSO 2024-10-09 22:51:51 0.0001663124 62.0 (m) DEBRIS

Associated space launch

Chinese polar orbiting meteorological satellite

FENGYUN 1C DEB was lifted into orbit during the mission ‘Long March 4B | Feng Yun 1C’, on board a Long March 4B space rocket.

The launch took place on May 10, 1999, 1:33 a.m. from Launch Complex 7.

For more information about the launch, click the button.

Launch to space Long March 4B | Feng Yun 1C
Long March 4B | Feng Yun 1C

Agency: N/A

Status: Launch Successful

Launch date: May 10, 1999, 1:33 a.m. UTC

Rocket: Long March 4B

Launch pad: Launch Complex 7

Location: Taiyuan Satellite Launch Center, People's Republic of China

...

Latest news about this satellite

There are no fresh news available about this satellite. Check back as we update our databases every day.


Newsletter sign-up

Weekly statistics, charts and insights to help you stay on top of the space industry.